カタログに戻る

FENGYUN 1C DEB

LostPO
NORAD 36149·DEBRIS·🇨🇳 China

打ち上げ May 10, 1999 から Taiyuan Satellite Launch Center

Loading…

次のパス (今後24時間)

TLE

古いSource: Space-Track

元期: Oct 21, 2022, 14:33 UTC

1 36149U 99025DRW 22294.60669779  .00002992  00000-0  13814-2 0  9998
2 36149  99.6041  68.8320 0029802  79.4924 280.9606 14.21586769742538

AllMySatでFENGYUN 1C DEBをリアルタイム追跡

Download on the App Store